Time,TemperatureF,DewpointF,PressureIn,WindDirection,WindDirectionDegrees,WindSpeedMPH,WindSpeedGustMPH,Humidity,HourlyPrecipIn,Conditions,Clouds,dailyrainin,SolarRadiationWatts/m^2,SoftwareType,DateUTC
2013-09-27 00:01:00,77.2,53.0,29.71,SSE,157,5.0,6.0,43,0.00,,---,0.00,0.00,VWS V14.01,2013-09-27 05:01:00,
2013-09-27 00:06:00,76.9,53.3,29.71,SSE,155,9.0,9.0,44,0.00,,---,0.00,0.00,VWS V14.01,2013-09-27 05:06:00,
2013-09-27 00:11:00,76.6,53.1,29.71,South,169,4.0,6.0,44,0.00,,---,0.00,0.00,VWS V14.01,2013-09-27 05:11:00,
2013-09-27 00:16:00,76.5,53.0,29.71,SE,141,6.0,7.0,44,0.00,,---,0.00,0.00,VWS V14.01,2013-09-27 05:16:00,
2013-09-27 00:21:00,76.5,53.0,29.71,South,171,7.0,7.0,44,0.00,,---,0.00,0.00,VWS V14.01,2013-09-27 05:21:00,
2013-09-27 00:26:00,76.2,53.3,29.71,South,171,6.0,8.0,45,0.00,,---,0.00,0.00,VWS V14.01,2013-09-27 05:26:00,
2013-09-27 00:31:00,75.8,53.0,29.71,South,178,9.0,9.0,45,0.00,,---,0.00,0.00,VWS V14.01,2013-09-27 05:31:00,
2013-09-27 00:36:00,75.5,53.3,29.71,SSE,161,7.0,10.0,46,0.00,,---,0.00,0.00,VWS V14.01,2013-09-27 05:36:00,
2013-09-27 00:41:00,75.1,52.9,29.72,SE,135,6.0,7.0,46,0.00,,---,0.00,0.00,VWS V14.01,2013-09-27 05:41:00,
2013-09-27 00:46:00,74.8,53.2,29.72,ESE,113,5.0,10.0,47,0.00,,---,0.00,0.00,VWS V14.01,2013-09-27 05:46:00,
2013-09-27 00:51:00,74.5,53.0,29.72,SE,132,6.0,9.0,47,0.00,,---,0.00,0.00,VWS V14.01,2013-09-27 05:51:00,
2013-09-27 00:56:00,74.6,53.1,29.72,SE,136,4.0,6.0,47,0.00,,---,0.00,0.00,VWS V14.01,2013-09-27 05:56:00,
2013-09-27 01:01:00,74.6,53.1,29.72,SSE,161,7.0,10.0,47,0.00,,---,0.00,0.00,VWS V14.01,2013-09-27 06:01:00,
2013-09-27 01:06:00,74.4,53.5,29.72,SSE,151,2.0,4.0,48,0.00,,---,0.00,0.00,VWS V14.01,2013-09-27 06:06:00,
2013-09-27 01:11:00,74.0,53.1,29.72,SSE,160,4.0,4.0,48,0.00,,---,0.00,0.00,VWS V14.01,2013-09-27 06:11:00,
2013-09-27 01:16:00,73.7,53.4,29.72,SSE,150,4.0,4.0,49,0.00,,---,0.00,0.00,VWS V14.01,2013-09-27 06:16:00,
2013-09-27 01:21:00,73.3,53.6,29.72,SE,135,4.0,4.0,50,0.00,,---,0.00,0.00,VWS V14.01,2013-09-27 06:21:00,
2013-09-27 01:26:00,73.0,53.3,29.72,SE,146,5.0,7.0,50,0.00,,---,0.00,0.00,VWS V14.01,2013-09-27 06:26:00,
2013-09-27 01:31:00,72.8,53.6,29.72,SSE,153,2.0,3.0,51,0.00,,---,0.00,0.00,VWS V14.01,2013-09-27 06:31:00,
2013-09-27 01:36:00,72.5,53.4,29.72,SSE,152,2.0,2.0,51,0.00,,---,0.00,0.00,VWS V14.01,2013-09-27 06:36:00,
2013-09-27 01:41:00,72.3,53.7,29.72,SSE,164,2.0,3.0,52,0.00,,---,0.00,0.00,VWS V14.01,2013-09-27 06:41:00,
2013-09-27 01:46:00,72.0,53.4,29.72,ESE,109,5.0,5.0,52,0.00,,---,0.00,0.00,VWS V14.01,2013-09-27 06:46:00,
2013-09-27 01:51:00,71.9,53.9,29.72,SE,146,6.0,6.0,53,0.00,,---,0.00,0.00,VWS V14.01,2013-09-27 06:51:00,
2013-09-27 01:56:00,72.0,54.0,29.72,SE,136,4.0,6.0,53,0.00,,---,0.00,0.00,VWS V14.01,2013-09-27 06:56:00,
2013-09-27 02:01:00,72.0,53.4,29.72,SSE,163,4.0,4.0,52,0.00,,---,0.00,0.00,VWS V14.01,2013-09-27 07:01:00,
2013-09-27 02:06:00,71.9,53.9,29.72,SSE,159,5.0,6.0,53,0.00,,---,0.00,0.00,VWS V14.01,2013-09-27 07:06:00,
2013-09-27 02:11:00,71.8,53.8,29.72,SSE,153,6.0,6.0,53,0.00,,---,0.00,0.00,VWS V14.01,2013-09-27 07:11:00,
2013-09-27 02:16:00,71.8,53.8,29.72,SSE,153,5.0,5.0,53,0.00,,---,0.00,0.00,VWS V14.01,2013-09-27 07:16:00,
2013-09-27 02:21:00,71.8,53.8,29.72,South,169,9.0,9.0,53,0.00,,---,0.00,0.00,VWS V14.01,2013-09-27 07:21:00,
2013-09-27 02:26:00,71.9,53.9,29.71,SSE,150,7.0,7.0,53,0.00,,---,0.00,0.00,VWS V14.01,2013-09-27 07:26:00,
2013-09-27 02:31:00,72.0,54.0,29.71,SSE,150,9.0,9.0,53,0.00,,---,0.00,0.00,VWS V14.01,2013-09-27 07:31:00,
2013-09-27 02:36:00,71.9,53.9,29.71,SSE,153,6.0,6.0,53,0.00,,---,0.00,0.00,VWS V14.01,2013-09-27 07:36:00,
2013-09-27 02:41:00,71.8,53.8,29.71,SSE,158,12.0,12.0,53,0.00,,---,0.00,0.00,VWS V14.01,2013-09-27 07:41:00,
2013-09-27 02:46:00,71.7,54.2,29.71,SSE,160,7.0,7.0,54,0.00,,---,0.00,0.00,VWS V14.01,2013-09-27 07:46:00,
2013-09-27 02:49:00,71.6,54.1,29.72,SSE,160,6.0,9.0,54,0.00,,---,0.00,0.00,VWS V14.01,2013-09-27 07:49:00,
2013-09-27 02:54:00,71.5,54.0,29.72,SSE,148,7.0,7.0,54,0.00,,---,0.00,0.00,VWS V14.01,2013-09-27 07:54:00,
2013-09-27 02:59:00,71.4,54.4,29.72,SSE,148,4.0,6.0,55,0.00,,---,0.00,0.00,VWS V14.01,2013-09-27 07:59:00,
2013-09-27 03:04:00,71.3,54.3,29.72,SSE,160,4.0,4.0,55,0.00,,---,0.00,0.00,VWS V14.01,2013-09-27 08:04:00,
2013-09-27 03:09:00,71.4,54.4,29.72,SSE,150,2.0,4.0,55,0.00,,---,0.00,0.00,VWS V14.01,2013-09-27 08:09:00,
2013-09-27 03:14:00,71.4,54.4,29.72,SSE,160,9.0,9.0,55,0.00,,---,0.00,0.00,VWS V14.01,2013-09-27 08:14:00,
2013-09-27 03:19:00,71.2,54.7,29.72,South,172,4.0,5.0,56,0.00,,---,0.00,0.00,VWS V14.01,2013-09-27 08:19:00,
2013-09-27 03:24:00,71.2,54.7,29.72,ESE,120,6.0,8.0,56,0.00,,---,0.00,0.00,VWS V14.01,2013-09-27 08:24:00,
2013-09-27 03:29:00,71.2,55.2,29.72,SSE,161,4.0,4.0,57,0.00,,---,0.00,0.00,VWS V14.01,2013-09-27 08:29:00,
2013-09-27 03:34:00,71.3,55.3,29.72,SSE,162,7.0,8.0,57,0.00,,---,0.00,0.00,VWS V14.01,2013-09-27 08:34:00,
2013-09-27 03:39:00,71.3,55.3,29.72,SSE,155,4.0,5.0,57,0.00,,---,0.00,0.00,VWS V14.01,2013-09-27 08:39:00,
2013-09-27 03:44:00,71.1,55.1,29.71,SE,139,6.0,6.0,57,0.00,,---,0.00,0.00,VWS V14.01,2013-09-27 08:44:00,
2013-09-27 03:49:00,71.0,55.5,29.71,SSE,148,3.0,6.0,58,0.00,,---,0.00,0.00,VWS V14.01,2013-09-27 08:49:00,
2013-09-27 03:54:00,70.9,55.4,29.71,SSE,149,7.0,10.0,58,0.00,,---,0.00,0.00,VWS V14.01,2013-09-27 08:54:00,
2013-09-27 03:59:00,70.7,55.7,29.71,ESE,123,5.0,5.0,59,0.00,,---,0.00,0.00,VWS V14.01,2013-09-27 08:59:00,
2013-09-27 04:04:00,70.6,55.6,29.71,SE,139,6.0,8.0,59,0.00,,---,0.00,0.00,VWS V14.01,2013-09-27 09:04:00,
2013-09-27 04:09:00,70.5,56.0,29.71,SSE,159,4.0,7.0,60,0.00,,---,0.00,0.00,VWS V14.01,2013-09-27 09:09:00,
2013-09-27 04:14:00,70.5,56.0,29.71,SSE,168,6.0,7.0,60,0.00,,---,0.00,0.00,VWS V14.01,2013-09-27 09:14:00,
2013-09-27 04:19:00,70.4,55.9,29.71,SSE,165,4.0,6.0,60,0.00,,---,0.00,0.00,VWS V14.01,2013-09-27 09:19:00,
2013-09-27 04:24:00,70.5,56.4,29.71,SE,144,4.0,5.0,61,0.00,,---,0.00,0.00,VWS V14.01,2013-09-27 09:24:00,
2013-09-27 04:29:00,70.4,56.3,29.71,SSE,157,3.0,6.0,61,0.00,,---,0.00,0.00,VWS V14.01,2013-09-27 09:29:00,
2013-09-27 04:34:00,70.3,56.2,29.71,SE,136,4.0,6.0,61,0.00,,---,0.00,0.00,VWS V14.01,2013-09-27 09:34:00,
2013-09-27 04:39:00,70.2,56.6,29.71,SSE,165,3.0,5.0,62,0.00,,---,0.00,0.00,VWS V14.01,2013-09-27 09:39:00,
2013-09-27 04:44:00,70.1,56.5,29.72,SSE,158,6.0,8.0,62,0.00,,---,0.00,0.00,VWS V14.01,2013-09-27 09:44:00,
2013-09-27 04:49:00,70.0,56.8,29.72,SE,141,3.0,3.0,63,0.00,,---,0.00,0.00,VWS V14.01,2013-09-27 09:49:00,
2013-09-27 04:54:00,69.8,56.7,29.72,SE,142,3.0,3.0,63,0.00,,---,0.00,0.00,VWS V14.01,2013-09-27 09:54:00,
2013-09-27 04:59:00,69.6,56.9,29.72,SSE,159,3.0,3.0,64,0.00,,---,0.00,0.00,VWS V14.01,2013-09-27 09:59:00,
2013-09-27 05:04:00,69.5,56.8,29.72,SSE,150,2.0,3.0,64,0.00,,---,0.00,0.00,VWS V14.01,2013-09-27 10:04:00,
2013-09-27 05:09:00,69.4,56.7,29.72,SSE,163,2.0,5.0,64,0.00,,---,0.00,0.00,VWS V14.01,2013-09-27 10:09:00,
2013-09-27 05:14:00,69.3,56.6,29.72,SE,138,4.0,6.0,64,0.00,,---,0.00,0.00,VWS V14.01,2013-09-27 10:14:00,
2013-09-27 05:19:00,69.3,57.0,29.72,SSE,162,5.0,5.0,65,0.00,,---,0.00,0.00,VWS V14.01,2013-09-27 10:19:00,
2013-09-27 05:24:00,69.2,57.0,29.72,South,180,5.0,5.0,65,0.00,,---,0.00,0.00,VWS V14.01,2013-09-27 10:24:00,
2013-09-27 05:29:00,69.1,56.8,29.72,SSE,167,7.0,7.0,65,0.00,,---,0.00,0.00,VWS V14.01,2013-09-27 10:29:00,
2013-09-27 05:34:00,69.2,57.4,29.72,SSE,156,9.0,9.0,66,0.00,,---,0.00,0.00,VWS V14.01,2013-09-27 10:34:00,
2013-09-27 05:39:00,69.2,57.0,29.72,SSE,165,6.0,6.0,65,0.00,,---,0.00,0.00,VWS V14.01,2013-09-27 10:39:00,
2013-09-27 05:44:00,69.1,57.3,29.72,SSE,158,4.0,7.0,66,0.00,,---,0.00,0.00,VWS V14.01,2013-09-27 10:44:00,
2013-09-27 05:49:00,69.1,57.3,29.73,South,170,3.0,4.0,66,0.00,,---,0.00,0.00,VWS V14.01,2013-09-27 10:49:00,
2013-09-27 05:54:00,69.0,57.6,29.73,SSE,157,3.0,3.0,67,0.00,,---,0.00,0.00,VWS V14.01,2013-09-27 10:54:00,
2013-09-27 05:59:00,68.9,57.5,29.73,SSE,156,4.0,6.0,67,0.00,,---,0.00,0.00,VWS V14.01,2013-09-27 10:59:00,
2013-09-27 06:04:00,68.9,57.5,29.73,SSE,148,4.0,4.0,67,0.00,,---,0.00,0.00,VWS V14.01,2013-09-27 11:04:00,
2013-09-27 06:09:00,68.9,57.9,29.73,South,184,5.0,6.0,68,0.00,,---,0.00,0.00,VWS V14.01,2013-09-27 11:09:00,
2013-09-27 06:14:00,68.9,57.9,29.73,South,173,4.0,5.0,68,0.00,,---,0.00,0.00,VWS V14.01,2013-09-27 11:14:00,
2013-09-27 06:19:00,68.9,58.3,29.73,SE,137,5.0,5.0,69,0.00,,---,0.00,0.00,VWS V14.01,2013-09-27 11:19:00,
2013-09-27 06:24:00,68.8,58.2,29.73,SSE,161,3.0,4.0,69,0.00,,---,0.00,0.00,VWS V14.01,2013-09-27 11:24:00,
2013-09-27 06:29:00,68.7,58.1,29.73,South,173,5.0,5.0,69,0.00,,---,0.00,0.00,VWS V14.01,2013-09-27 11:29:00,
2013-09-27 06:34:00,68.7,58.5,29.73,SSE,159,6.0,6.0,70,0.00,,---,0.00,0.00,VWS V14.01,2013-09-27 11:34:00,
2013-09-27 06:39:00,68.8,58.6,29.73,South,170,7.0,10.0,70,0.00,,---,0.00,0.00,VWS V14.01,2013-09-27 11:39:00,
2013-09-27 06:44:00,68.8,58.6,29.74,SSE,163,7.0,7.0,70,0.00,,---,0.00,0.00,VWS V14.01,2013-09-27 11:44:00,
2013-09-27 06:49:00,68.8,59.0,29.74,SSE,159,4.0,5.0,71,0.00,,---,0.00,0.00,VWS V14.01,2013-09-27 11:49:00,
2013-09-27 06:54:00,68.7,58.9,29.74,SSE,161,5.0,6.0,71,0.00,,---,0.00,0.00,VWS V14.01,2013-09-27 11:54:00,
2013-09-27 06:59:00,68.8,59.4,29.74,SSE,160,3.0,3.0,72,0.00,,---,0.00,0.00,VWS V14.01,2013-09-27 11:59:00,
2013-09-27 07:04:00,68.9,59.5,29.73,South,171,5.0,5.0,72,0.00,,---,0.00,0.00,VWS V14.01,2013-09-27 12:04:00,
2013-09-27 07:09:00,69.0,59.6,29.74,SSE,164,10.0,10.0,72,0.00,,---,0.00,0.00,VWS V14.01,2013-09-27 12:09:00,
2013-09-27 07:14:00,69.3,60.3,29.74,South,172,6.0,6.0,73,0.00,,---,0.00,0.00,VWS V14.01,2013-09-27 12:14:00,
2013-09-27 07:19:00,69.5,60.5,29.74,SSE,160,5.0,6.0,73,0.00,,---,0.00,0.00,VWS V14.01,2013-09-27 12:19:00,
2013-09-27 07:24:00,69.7,60.7,29.74,SSE,154,8.0,9.0,73,0.00,,---,0.00,0.00,VWS V14.01,2013-09-27 12:24:00,
2013-09-27 07:29:00,69.7,60.7,29.74,South,178,6.0,6.0,73,0.00,,---,0.00,5.00,VWS V14.01,2013-09-27 12:29:00,
2013-09-27 07:34:00,69.7,60.7,29.74,SSE,166,10.0,10.0,73,0.00,,---,0.00,7.00,VWS V14.01,2013-09-27 12:34:00,
2013-09-27 07:39:00,69.6,60.6,29.75,South,171,6.0,6.0,73,0.00,,---,0.00,11.00,VWS V14.01,2013-09-27 12:39:00,
2013-09-27 07:44:00,69.6,61.0,29.75,SSE,156,10.0,10.0,74,0.00,,---,0.00,14.00,VWS V14.01,2013-09-27 12:44:00,
2013-09-27 07:49:00,69.7,61.0,29.75,SE,133,3.0,6.0,74,0.00,,---,0.00,19.00,VWS V14.01,2013-09-27 12:49:00,
2013-09-27 07:54:00,69.6,61.0,29.75,SE,127,3.0,3.0,74,0.00,,---,0.00,26.00,VWS V14.01,2013-09-27 12:54:00,
2013-09-27 07:59:00,69.5,60.5,29.75,SE,138,3.0,4.0,73,0.00,,---,0.00,35.00,VWS V14.01,2013-09-27 12:59:00,
2013-09-27 08:04:00,69.5,60.5,29.75,SSE,168,5.0,6.0,73,0.00,,---,0.00,46.00,VWS V14.01,2013-09-27 13:04:00,
2013-09-27 08:09:00,69.6,61.0,29.75,SE,143,3.0,3.0,74,0.00,,---,0.00,56.00,VWS V14.01,2013-09-27 13:09:00,
2013-09-27 08:14:00,69.8,61.2,29.75,SSE,158,3.0,3.0,74,0.00,,---,0.00,70.00,VWS V14.01,2013-09-27 13:14:00,
2013-09-27 08:19:00,70.1,61.4,29.75,SSE,165,4.0,4.0,74,0.00,,---,0.00,88.00,VWS V14.01,2013-09-27 13:19:00,
2013-09-27 08:24:00,70.4,61.7,29.75,East,99,3.0,3.0,74,0.00,,---,0.00,105.00,VWS V14.01,2013-09-27 13:24:00,
2013-09-27 08:29:00,70.8,62.1,29.75,South,176,6.0,7.0,74,0.00,,---,0.00,125.00,VWS V14.01,2013-09-27 13:29:00,
2013-09-27 08:34:00,71.2,62.1,29.75,SSE,157,5.0,5.0,73,0.00,,---,0.00,144.00,VWS V14.01,2013-09-27 13:34:00,
2013-09-27 08:39:00,71.6,62.5,29.75,SSE,165,10.0,10.0,73,0.00,,---,0.00,162.00,VWS V14.01,2013-09-27 13:39:00,
2013-09-27 08:44:00,72.0,62.9,29.75,South,181,7.0,10.0,73,0.00,,---,0.00,181.00,VWS V14.01,2013-09-27 13:44:00,
2013-09-27 08:49:00,72.4,63.3,29.75,SSE,155,6.0,7.0,73,0.00,,---,0.00,200.00,VWS V14.01,2013-09-27 13:49:00,
2013-09-27 08:54:00,72.8,63.7,29.75,South,170,5.0,10.0,73,0.00,,---,0.00,218.00,VWS V14.01,2013-09-27 13:54:00,
2013-09-27 08:59:00,73.2,64.0,29.75,South,170,10.0,13.0,73,0.00,,---,0.00,239.00,VWS V14.01,2013-09-27 13:59:00,
2013-09-27 09:04:00,73.7,64.5,29.75,SSE,153,9.0,11.0,73,0.00,,---,0.00,255.00,VWS V14.01,2013-09-27 14:04:00,
2013-09-27 09:09:00,74.1,64.9,29.75,South,172,8.0,10.0,73,0.00,,---,0.00,276.00,VWS V14.01,2013-09-27 14:09:00,
2013-09-27 09:14:00,74.6,65.8,29.75,SSE,150,9.0,17.0,74,0.00,,---,0.00,290.00,VWS V14.01,2013-09-27 14:14:00,
2013-09-27 09:19:00,74.9,65.7,29.75,SSE,167,9.0,14.0,73,0.00,,---,0.00,315.00,VWS V14.01,2013-09-27 14:19:00,
2013-09-27 09:24:00,75.5,66.2,29.75,South,170,13.0,19.0,73,0.00,,---,0.00,355.00,VWS V14.01,2013-09-27 14:24:00,
2013-09-27 09:29:00,75.7,66.4,29.75,SSE,165,15.0,15.0,73,0.00,,---,0.00,397.00,VWS V14.01,2013-09-27 14:29:00,
2013-09-27 09:34:00,76.0,66.3,29.75,South,184,12.0,21.0,72,0.00,,---,0.00,413.00,VWS V14.01,2013-09-27 14:34:00,
2013-09-27 09:39:00,76.2,66.5,29.75,South,187,10.0,17.0,72,0.00,,---,0.00,221.00,VWS V14.01,2013-09-27 14:39:00,
2013-09-27 09:44:00,76.4,66.7,29.76,South,183,11.0,16.0,72,0.00,,---,0.00,406.00,VWS V14.01,2013-09-27 14:44:00,
2013-09-27 09:49:00,76.8,67.1,29.76,SSE,165,17.0,17.0,72,0.00,,---,0.00,436.00,VWS V14.01,2013-09-27 14:49:00,
2013-09-27 09:54:00,77.1,67.4,29.75,SSE,148,15.0,19.0,72,0.00,,---,0.00,485.00,VWS V14.01,2013-09-27 14:54:00,
2013-09-27 09:59:00,77.3,67.6,29.75,South,183,9.0,15.0,72,0.00,,---,0.00,244.00,VWS V14.01,2013-09-27 14:59:00,
2013-09-27 10:04:00,77.5,67.8,29.76,South,176,21.0,23.0,72,0.00,,---,0.00,540.00,VWS V14.01,2013-09-27 15:04:00,
2013-09-27 10:09:00,77.1,67.4,29.76,South,178,13.0,17.0,72,0.00,,---,0.00,547.00,VWS V14.01,2013-09-27 15:09:00,
2013-09-27 10:14:00,77.3,67.6,29.76,SSE,150,16.0,18.0,72,0.00,,---,0.00,512.00,VWS V14.01,2013-09-27 15:14:00,
2013-09-27 10:19:00,77.7,67.6,29.76,SSE,158,18.0,20.0,71,0.00,,---,0.00,411.00,VWS V14.01,2013-09-27 15:19:00,
2013-09-27 10:24:00,77.5,67.4,29.76,SSE,162,9.0,18.0,71,0.00,,---,0.00,548.00,VWS V14.01,2013-09-27 15:24:00,
2013-09-27 10:29:00,77.9,67.8,29.76,SSE,160,17.0,17.0,71,0.00,,---,0.00,584.00,VWS V14.01,2013-09-27 15:29:00,
2013-09-27 10:34:00,78.2,68.0,29.76,SSE,162,11.0,13.0,71,0.00,,---,0.00,359.00,VWS V14.01,2013-09-27 15:34:00,
2013-09-27 10:39:00,78.7,68.5,29.75,SE,146,18.0,20.0,71,0.00,,---,0.00,555.00,VWS V14.01,2013-09-27 15:39:00,
2013-09-27 10:44:00,79.3,68.7,29.75,SSE,156,9.0,11.0,70,0.00,,---,0.00,568.00,VWS V14.01,2013-09-27 15:44:00,
2013-09-27 10:49:00,80.2,68.7,29.76,South,175,12.0,18.0,68,0.00,,---,0.00,606.00,VWS V14.01,2013-09-27 15:49:00,
2013-09-27 10:54:00,80.4,68.9,29.76,South,178,5.0,14.0,68,0.00,,---,0.00,677.00,VWS V14.01,2013-09-27 15:54:00,
2013-09-27 10:59:00,81.1,69.1,29.75,SSE,150,6.0,14.0,67,0.00,,---,0.00,645.00,VWS V14.01,2013-09-27 15:59:00,
2013-09-27 11:04:00,81.6,69.2,29.75,SSE,155,13.0,21.0,66,0.00,,---,0.00,654.00,VWS V14.01,2013-09-27 16:04:00,
2013-09-27 11:09:00,81.4,69.0,29.75,South,178,12.0,17.0,66,0.00,,---,0.00,670.00,VWS V14.01,2013-09-27 16:09:00,
2013-09-27 11:14:00,81.7,69.2,29.75,SSW,192,15.0,16.0,66,0.00,,---,0.00,703.00,VWS V14.01,2013-09-27 16:14:00,
2013-09-27 11:19:00,82.1,69.2,29.75,South,175,16.0,16.0,65,0.00,,---,0.00,735.00,VWS V14.01,2013-09-27 16:19:00,
2013-09-27 11:24:00,82.6,69.2,29.75,South,191,6.0,13.0,64,0.00,,---,0.00,448.00,VWS V14.01,2013-09-27 16:24:00,
2013-09-27 11:29:00,83.1,69.2,29.75,South,175,12.0,14.0,63,0.00,,---,0.00,853.00,VWS V14.01,2013-09-27 16:29:00,
2013-09-27 11:34:00,83.1,69.2,29.74,South,176,9.0,14.0,63,0.00,,---,0.00,844.00,VWS V14.01,2013-09-27 16:34:00,
2013-09-27 11:39:00,83.3,68.9,29.74,SE,134,14.0,14.0,62,0.00,,---,0.00,257.00,VWS V14.01,2013-09-27 16:39:00,
2013-09-27 11:44:00,83.4,69.0,29.74,SSE,165,11.0,15.0,62,0.00,,---,0.00,773.00,VWS V14.01,2013-09-27 16:44:00,
2013-09-27 11:49:00,83.8,68.9,29.74,SSE,167,17.0,18.0,61,0.00,,---,0.00,798.00,VWS V14.01,2013-09-27 16:49:00,
2013-09-27 11:54:00,84.0,69.6,29.74,NE,41,5.0,11.0,62,0.00,,---,0.00,826.00,VWS V14.01,2013-09-27 16:54:00,
2013-09-27 11:59:00,85.0,69.6,29.73,SSE,165,7.0,13.0,60,0.00,,---,0.00,237.00,VWS V14.01,2013-09-27 16:59:00,
2013-09-27 12:04:00,84.7,68.8,29.73,SSE,153,13.0,13.0,59,0.00,,---,0.00,838.00,VWS V14.01,2013-09-27 17:04:00,
2013-09-27 12:09:00,85.6,69.6,29.73,SSW,192,13.0,18.0,59,0.00,,---,0.00,824.00,VWS V14.01,2013-09-27 17:09:00,
2013-09-27 12:14:00,86.3,68.8,29.72,SSE,163,7.0,17.0,56,0.00,,---,0.00,842.00,VWS V14.01,2013-09-27 17:14:00,
2013-09-27 12:19:00,86.5,69.0,29.72,South,169,5.0,16.0,56,0.00,,---,0.00,935.00,VWS V14.01,2013-09-27 17:19:00,
2013-09-27 12:24:00,86.8,69.2,29.72,SSE,149,11.0,13.0,56,0.00,,---,0.00,821.00,VWS V14.01,2013-09-27 17:24:00,
2013-09-27 12:26:00,87.0,69.4,29.72,SSE,159,7.0,18.0,56,0.00,,---,0.00,817.00,VWS V14.01,2013-09-27 17:26:00,
2013-09-27 12:31:00,86.8,69.2,29.71,South,176,8.0,14.0,56,0.00,,---,0.00,895.00,VWS V14.01,2013-09-27 17:31:00,
2013-09-27 12:36:00,87.1,69.0,29.71,SSE,148,9.0,20.0,55,0.00,,---,0.00,846.00,VWS V14.01,2013-09-27 17:36:00,
2013-09-27 12:41:00,86.8,68.7,29.71,SSE,153,16.0,19.0,55,0.00,,---,0.00,898.00,VWS V14.01,2013-09-27 17:41:00,
2013-09-27 12:46:00,86.6,69.1,29.71,SSE,168,13.0,16.0,56,0.00,,---,0.00,926.00,VWS V14.01,2013-09-27 17:46:00,
2013-09-27 12:51:00,88.1,69.4,29.71,South,177,6.0,16.0,54,0.00,,---,0.00,926.00,VWS V14.01,2013-09-27 17:51:00,
2013-09-27 12:56:00,87.5,68.3,29.71,SSE,168,16.0,16.0,53,0.00,,---,0.00,295.00,VWS V14.01,2013-09-27 17:56:00,
2013-09-27 13:01:00,86.4,68.9,29.70,SSE,148,13.0,14.0,56,0.00,,---,0.00,947.00,VWS V14.01,2013-09-27 18:01:00,
2013-09-27 13:06:00,86.8,68.7,29.70,South,184,11.0,18.0,55,0.00,,---,0.00,946.00,VWS V14.01,2013-09-27 18:06:00,
2013-09-27 13:11:00,86.7,68.6,29.70,SSE,148,8.0,13.0,55,0.00,,---,0.00,237.00,VWS V14.01,2013-09-27 18:11:00,
2013-09-27 13:16:00,86.3,68.2,29.70,SSE,156,11.0,16.0,55,0.00,,---,0.00,188.00,VWS V14.01,2013-09-27 18:16:00,
2013-09-27 13:21:00,86.8,68.2,29.69,SE,142,10.0,21.0,54,0.00,,---,0.00,733.00,VWS V14.01,2013-09-27 18:21:00,
2013-09-27 13:26:00,87.2,68.5,29.69,SSE,149,16.0,23.0,54,0.00,,---,0.00,221.00,VWS V14.01,2013-09-27 18:26:00,
2013-09-27 13:31:00,87.0,68.4,29.69,South,172,15.0,16.0,54,0.00,,---,0.00,292.00,VWS V14.01,2013-09-27 18:31:00,
2013-09-27 13:36:00,87.1,68.4,29.69,ESE,122,9.0,16.0,54,0.00,,---,0.00,290.00,VWS V14.01,2013-09-27 18:36:00,
2013-09-27 13:41:00,87.8,69.1,29.69,South,169,14.0,16.0,54,0.00,,---,0.00,918.00,VWS V14.01,2013-09-27 18:41:00,
2013-09-27 13:46:00,88.8,68.9,29.69,SSE,168,10.0,16.0,52,0.00,,---,0.00,939.00,VWS V14.01,2013-09-27 18:46:00,
2013-09-27 13:51:00,89.4,68.9,29.68,SSE,153,12.0,19.0,51,0.00,,---,0.00,383.00,VWS V14.01,2013-09-27 18:51:00,
2013-09-27 13:56:00,89.3,68.8,29.68,SE,136,8.0,19.0,51,0.00,,---,0.00,896.00,VWS V14.01,2013-09-27 18:56:00,
2013-09-27 14:01:00,89.9,68.8,29.68,SSE,161,17.0,19.0,50,0.00,,---,0.00,926.00,VWS V14.01,2013-09-27 19:01:00,
2013-09-27 14:06:00,88.9,68.4,29.67,SSE,147,19.0,19.0,51,0.00,,---,0.00,439.00,VWS V14.01,2013-09-27 19:06:00,
2013-09-27 14:11:00,88.0,68.2,29.67,SSE,159,9.0,16.0,52,0.00,,---,0.00,258.00,VWS V14.01,2013-09-27 19:11:00,
2013-09-27 14:16:00,88.6,68.7,29.67,SSE,167,13.0,16.0,52,0.00,,---,0.00,969.00,VWS V14.01,2013-09-27 19:16:00,
2013-09-27 14:21:00,88.8,68.9,29.66,ESE,111,5.0,9.0,52,0.00,,---,0.00,958.00,VWS V14.01,2013-09-27 19:21:00,
2013-09-27 14:26:00,89.7,69.2,29.66,ESE,123,9.0,10.0,51,0.00,,---,0.00,958.00,VWS V14.01,2013-09-27 19:26:00,
2013-09-27 14:31:00,90.0,68.9,29.66,SSE,165,15.0,19.0,50,0.00,,---,0.00,849.00,VWS V14.01,2013-09-27 19:31:00,
2013-09-27 14:36:00,89.9,68.2,29.66,South,171,19.0,19.0,49,0.00,,---,0.00,851.00,VWS V14.01,2013-09-27 19:36:00,
2013-09-27 14:41:00,89.3,68.2,29.65,SSE,150,13.0,26.0,50,0.00,,---,0.00,972.00,VWS V14.01,2013-09-27 19:41:00,
2013-09-27 14:46:00,90.3,68.6,29.65,South,170,12.0,21.0,49,0.00,,---,0.00,860.00,VWS V14.01,2013-09-27 19:46:00,
2013-09-27 14:51:00,90.8,68.4,29.65,SSE,167,17.0,21.0,48,0.00,,---,0.00,786.00,VWS V14.01,2013-09-27 19:51:00,
2013-09-27 14:56:00,90.7,68.3,29.64,SSE,165,10.0,18.0,48,0.00,,---,0.00,833.00,VWS V14.01,2013-09-27 19:56:00,
2013-09-27 15:01:00,90.1,67.8,29.64,SSE,167,23.0,23.0,48,0.00,,---,0.00,842.00,VWS V14.01,2013-09-27 20:01:00,
2013-09-27 15:06:00,90.2,68.5,29.64,South,169,14.0,21.0,49,0.00,,---,0.00,773.00,VWS V14.01,2013-09-27 20:06:00,
2013-09-27 15:11:00,90.2,67.9,29.64,South,177,18.0,19.0,48,0.00,,---,0.00,805.00,VWS V14.01,2013-09-27 20:11:00,
2013-09-27 15:16:00,89.9,68.2,29.64,SSE,159,17.0,25.0,49,0.00,,---,0.00,779.00,VWS V14.01,2013-09-27 20:16:00,
2013-09-27 15:21:00,89.9,68.2,29.64,SSE,165,12.0,14.0,49,0.00,,---,0.00,733.00,VWS V14.01,2013-09-27 20:21:00,
2013-09-27 15:26:00,90.1,68.4,29.63,SSE,166,17.0,21.0,49,0.00,,---,0.00,773.00,VWS V14.01,2013-09-27 20:26:00,
2013-09-27 15:31:00,89.5,67.8,29.63,South,172,12.0,15.0,49,0.00,,---,0.00,232.00,VWS V14.01,2013-09-27 20:31:00,
2013-09-27 15:36:00,89.5,67.8,29.63,South,178,16.0,19.0,49,0.00,,---,0.00,765.00,VWS V14.01,2013-09-27 20:36:00,
2013-09-27 15:41:00,89.0,67.4,29.64,SSE,163,22.0,22.0,49,0.00,,---,0.00,230.00,VWS V14.01,2013-09-27 20:41:00,
2013-09-27 15:46:00,88.6,67.6,29.64,South,187,24.0,25.0,50,0.00,,---,0.00,299.00,VWS V14.01,2013-09-27 20:46:00,
2013-09-27 15:51:00,89.1,67.5,29.64,SSE,149,10.0,23.0,49,0.00,,---,0.00,253.00,VWS V14.01,2013-09-27 20:51:00,
2013-09-27 15:56:00,89.1,66.9,29.63,SSE,153,14.0,23.0,48,0.00,,---,0.00,241.00,VWS V14.01,2013-09-27 20:56:00,
2013-09-27 16:01:00,89.0,66.8,29.63,South,174,22.0,27.0,48,0.00,,---,0.00,311.00,VWS V14.01,2013-09-27 21:01:00,
2013-09-27 16:06:00,89.4,67.1,29.63,South,176,16.0,18.0,48,0.00,,---,0.00,684.00,VWS V14.01,2013-09-27 21:06:00,
2013-09-27 16:11:00,90.0,67.7,29.63,SSE,163,16.0,21.0,48,0.00,,---,0.00,654.00,VWS V14.01,2013-09-27 21:11:00,
2013-09-27 16:16:00,90.1,67.2,29.63,South,182,9.0,18.0,47,0.00,,---,0.00,626.00,VWS V14.01,2013-09-27 21:16:00,
2013-09-27 16:21:00,90.2,67.3,29.63,SSE,157,9.0,13.0,47,0.00,,---,0.00,506.00,VWS V14.01,2013-09-27 21:21:00,
2013-09-27 16:26:00,90.2,66.6,29.63,SSE,148,9.0,22.0,46,0.00,,---,0.00,163.00,VWS V14.01,2013-09-27 21:26:00,
2013-09-27 16:31:00,89.3,66.4,29.63,SSE,152,14.0,25.0,47,0.00,,---,0.00,155.00,VWS V14.01,2013-09-27 21:31:00,
2013-09-27 16:36:00,88.9,66.7,29.63,SSE,153,18.0,27.0,48,0.00,,---,0.00,156.00,VWS V14.01,2013-09-27 21:36:00,
2013-09-27 16:41:00,89.1,66.3,29.63,SE,144,16.0,19.0,47,0.00,,---,0.00,148.00,VWS V14.01,2013-09-27 21:41:00,
2013-09-27 16:46:00,88.8,66.6,29.64,SSE,165,19.0,20.0,48,0.00,,---,0.00,524.00,VWS V14.01,2013-09-27 21:46:00,
2013-09-27 16:51:00,88.6,66.4,29.63,SSE,156,6.0,13.0,48,0.00,,---,0.00,109.00,VWS V14.01,2013-09-27 21:51:00,
2013-09-27 16:56:00,88.5,66.3,29.64,SSE,150,20.0,23.0,48,0.00,,---,0.00,436.00,VWS V14.01,2013-09-27 21:56:00,
2013-09-27 17:01:00,88.2,66.7,29.63,SE,142,7.0,13.0,49,0.00,,---,0.00,241.00,VWS V14.01,2013-09-27 22:01:00,
2013-09-27 17:06:00,88.3,66.7,29.64,South,169,10.0,19.0,49,0.00,,---,0.00,519.00,VWS V14.01,2013-09-27 22:06:00,
2013-09-27 17:11:00,89.2,66.3,29.63,South,178,12.0,21.0,47,0.00,,---,0.00,473.00,VWS V14.01,2013-09-27 22:11:00,
2013-09-27 17:16:00,89.3,66.4,29.63,SSE,150,13.0,18.0,47,0.00,,---,0.00,438.00,VWS V14.01,2013-09-27 22:16:00,
2013-09-27 17:21:00,89.5,66.6,29.63,South,171,14.0,24.0,47,0.00,,---,0.00,417.00,VWS V14.01,2013-09-27 22:21:00,
2013-09-27 17:26:00,89.3,66.4,29.63,SSE,149,7.0,18.0,47,0.00,,---,0.00,413.00,VWS V14.01,2013-09-27 22:26:00,
2013-09-27 17:31:00,89.7,66.8,29.63,SSE,155,16.0,22.0,47,0.00,,---,0.00,401.00,VWS V14.01,2013-09-27 22:31:00,
2013-09-27 17:36:00,89.5,66.6,29.62,SE,126,9.0,21.0,47,0.00,,---,0.00,357.00,VWS V14.01,2013-09-27 22:36:00,
2013-09-27 17:41:00,89.0,66.2,29.63,SE,146,18.0,19.0,47,0.00,,---,0.00,95.00,VWS V14.01,2013-09-27 22:41:00,
2013-09-27 17:46:00,88.2,66.1,29.63,SE,144,10.0,17.0,48,0.00,,---,0.00,127.00,VWS V14.01,2013-09-27 22:46:00,
2013-09-27 17:51:00,87.9,66.4,29.63,SSE,160,11.0,18.0,49,0.00,,---,0.00,90.00,VWS V14.01,2013-09-27 22:51:00,
2013-09-27 17:56:00,87.7,66.2,29.62,SE,146,15.0,15.0,49,0.00,,---,0.00,118.00,VWS V14.01,2013-09-27 22:56:00,
2013-09-27 18:01:00,87.8,66.3,29.62,South,172,11.0,14.0,49,0.00,,---,0.00,128.00,VWS V14.01,2013-09-27 23:01:00,
2013-09-27 18:06:00,88.2,66.7,29.62,South,173,14.0,19.0,49,0.00,,---,0.00,225.00,VWS V14.01,2013-09-27 23:06:00,
2013-09-27 18:11:00,88.1,66.6,29.62,SSE,166,10.0,14.0,49,0.00,,---,0.00,221.00,VWS V14.01,2013-09-27 23:11:00,
2013-09-27 18:16:00,88.1,66.6,29.62,SSE,159,15.0,16.0,49,0.00,,---,0.00,127.00,VWS V14.01,2013-09-27 23:16:00,
2013-09-27 18:21:00,88.1,66.6,29.62,South,180,8.0,15.0,49,0.00,,---,0.00,120.00,VWS V14.01,2013-09-27 23:21:00,
2013-09-27 18:26:00,88.1,66.6,29.62,SSE,152,15.0,20.0,49,0.00,,---,0.00,132.00,VWS V14.01,2013-09-27 23:26:00,
2013-09-27 18:31:00,87.8,66.9,29.62,SE,140,6.0,16.0,50,0.00,,---,0.00,118.00,VWS V14.01,2013-09-27 23:31:00,
2013-09-27 18:36:00,87.6,66.7,29.62,ESE,113,5.0,13.0,50,0.00,,---,0.00,97.00,VWS V14.01,2013-09-27 23:36:00,
2013-09-27 18:40:00,87.4,66.5,29.61,SE,140,6.0,12.0,50,0.00,,---,0.00,70.00,VWS V14.01,2013-09-27 23:40:00,
2013-09-27 18:45:00,87.3,67.0,29.61,SSE,157,12.0,16.0,51,0.00,,---,0.00,63.00,VWS V14.01,2013-09-27 23:45:00,
2013-09-27 18:50:00,87.1,66.8,29.61,SSE,161,14.0,14.0,51,0.00,,---,0.00,51.00,VWS V14.01,2013-09-27 23:50:00,
2013-09-27 18:55:00,87.0,67.3,29.61,South,175,13.0,18.0,52,0.00,,---,0.00,40.00,VWS V14.01,2013-09-27 23:55:00,
2013-09-27 19:00:00,86.8,67.1,29.62,SSE,168,9.0,16.0,52,0.00,,---,0.00,32.00,VWS V14.01,2013-09-28 00:00:00,
2013-09-27 19:05:00,86.5,67.3,29.62,SSE,167,9.0,12.0,53,0.00,,---,0.00,21.00,VWS V14.01,2013-09-28 00:05:00,
2013-09-27 19:10:00,86.3,67.2,29.62,SSE,155,14.0,14.0,53,0.00,,---,0.00,12.00,VWS V14.01,2013-09-28 00:10:00,
2013-09-27 19:15:00,86.1,67.5,29.62,SSE,149,14.0,21.0,54,0.00,,---,0.00,9.00,VWS V14.01,2013-09-28 00:15:00,
2013-09-27 19:20:00,85.9,67.9,29.62,SE,128,9.0,17.0,55,0.00,,---,0.00,7.00,VWS V14.01,2013-09-28 00:20:00,
2013-09-27 19:25:00,85.7,67.7,29.62,SE,142,11.0,13.0,55,0.00,,---,0.00,0.00,VWS V14.01,2013-09-28 00:25:00,
2013-09-27 19:31:00,85.4,67.4,29.61,SSE,155,3.0,12.0,55,0.00,,---,0.00,0.00,VWS V14.01,2013-09-28 00:31:00,
2013-09-27 19:36:00,85.2,67.8,29.61,SSE,147,6.0,11.0,56,0.00,,---,0.00,0.00,VWS V14.01,2013-09-28 00:36:00,
2013-09-27 19:41:00,85.0,68.1,29.61,SSE,156,12.0,16.0,57,0.00,,---,0.00,0.00,VWS V14.01,2013-09-28 00:41:00,
2013-09-27 19:46:00,84.9,68.0,29.61,SSE,150,13.0,17.0,57,0.00,,---,0.00,0.00,VWS V14.01,2013-09-28 00:46:00,
2013-09-27 19:51:00,84.8,67.9,29.61,SSE,157,9.0,17.0,57,0.00,,---,0.00,0.00,VWS V14.01,2013-09-28 00:51:00,
2013-09-27 19:56:00,84.6,68.2,29.62,SSE,165,10.0,13.0,58,0.00,,---,0.00,0.00,VWS V14.01,2013-09-28 00:56:00,
2013-09-27 20:01:00,84.4,68.0,29.62,South,179,10.0,13.0,58,0.00,,---,0.00,0.00,VWS V14.01,2013-09-28 01:01:00,
2013-09-27 20:06:00,84.2,68.3,29.62,South,170,5.0,17.0,59,0.00,,---,0.00,0.00,VWS V14.01,2013-09-28 01:06:00,
2013-09-27 20:11:00,84.1,68.7,29.62,SSE,167,9.0,15.0,60,0.00,,---,0.00,0.00,VWS V14.01,2013-09-28 01:11:00,
2013-09-27 20:16:00,84.1,68.7,29.62,SE,146,11.0,19.0,60,0.00,,---,0.00,0.00,VWS V14.01,2013-09-28 01:16:00,
2013-09-27 20:21:00,84.0,68.6,29.62,SSE,161,10.0,14.0,60,0.00,,---,0.00,0.00,VWS V14.01,2013-09-28 01:21:00,
2013-09-27 20:26:00,83.9,68.5,29.62,SE,140,11.0,14.0,60,0.00,,---,0.00,0.00,VWS V14.01,2013-09-28 01:26:00,
2013-09-27 20:31:00,83.8,68.9,29.62,South,178,9.0,15.0,61,0.00,,---,0.00,0.00,VWS V14.01,2013-09-28 01:31:00,
2013-09-27 20:36:00,83.7,68.8,29.62,South,173,14.0,15.0,61,0.00,,---,0.00,0.00,VWS V14.01,2013-09-28 01:36:00,
2013-09-27 20:41:00,83.5,69.1,29.62,SSE,150,5.0,12.0,62,0.00,,---,0.00,0.00,VWS V14.01,2013-09-28 01:41:00,
2013-09-27 20:46:00,83.3,68.9,29.63,SSE,155,14.0,15.0,62,0.00,,---,0.00,0.00,VWS V14.01,2013-09-28 01:46:00,
2013-09-27 20:51:00,83.3,69.4,29.63,South,169,9.0,10.0,63,0.00,,---,0.00,0.00,VWS V14.01,2013-09-28 01:51:00,
2013-09-27 20:56:00,83.2,69.3,29.63,South,172,11.0,15.0,63,0.00,,---,0.00,0.00,VWS V14.01,2013-09-28 01:56:00,
2013-09-27 21:01:00,83.1,69.2,29.63,SSE,158,16.0,16.0,63,0.00,,---,0.00,0.00,VWS V14.01,2013-09-28 02:01:00,
2013-09-27 21:06:00,82.9,69.5,29.64,SSE,167,6.0,10.0,64,0.00,,---,0.00,0.00,VWS V14.01,2013-09-28 02:06:00,
2013-09-27 21:11:00,82.8,69.4,29.64,South,175,10.0,12.0,64,0.00,,---,0.00,0.00,VWS V14.01,2013-09-28 02:11:00,
2013-09-27 21:16:00,82.6,69.2,29.64,SE,139,10.0,10.0,64,0.00,,---,0.00,0.00,VWS V14.01,2013-09-28 02:16:00,
2013-09-27 21:21:00,82.4,69.5,29.64,SE,146,5.0,10.0,65,0.00,,---,0.00,0.00,VWS V14.01,2013-09-28 02:21:00,
2013-09-27 21:26:00,82.2,69.3,29.64,South,175,4.0,11.0,65,0.00,,---,0.00,0.00,VWS V14.01,2013-09-28 02:26:00,
2013-09-27 21:31:00,82.1,69.6,29.64,SSE,148,9.0,18.0,66,0.00,,---,0.00,0.00,VWS V14.01,2013-09-28 02:31:00,
2013-09-27 21:36:00,82.0,69.5,29.64,SE,136,13.0,17.0,66,0.00,,---,0.00,0.00,VWS V14.01,2013-09-28 02:36:00,
2013-09-27 21:41:00,81.8,69.8,29.65,South,180,7.0,12.0,67,0.00,,---,0.00,0.00,VWS V14.01,2013-09-28 02:41:00,
2013-09-27 21:46:00,81.7,69.7,29.65,SE,132,10.0,14.0,67,0.00,,---,0.00,0.00,VWS V14.01,2013-09-28 02:46:00,
2013-09-27 21:51:00,81.6,69.6,29.66,South,181,11.0,13.0,67,0.00,,---,0.00,0.00,VWS V14.01,2013-09-28 02:51:00,
2013-09-27 21:56:00,81.5,69.5,29.66,SSE,150,13.0,13.0,67,0.00,,---,0.00,0.00,VWS V14.01,2013-09-28 02:56:00,
2013-09-27 22:01:00,81.4,69.8,29.66,SE,142,8.0,16.0,68,0.00,,---,0.00,0.00,VWS V14.01,2013-09-28 03:01:00,
2013-09-27 22:06:00,81.3,69.7,29.66,SE,140,4.0,13.0,68,0.00,,---,0.00,0.00,VWS V14.01,2013-09-28 03:06:00,
2013-09-27 22:11:00,81.2,69.6,29.66,SE,146,3.0,10.0,68,0.00,,---,0.00,0.00,VWS V14.01,2013-09-28 03:11:00,
2013-09-27 22:16:00,81.0,69.4,29.66,SE,142,4.0,11.0,68,0.00,,---,0.00,0.00,VWS V14.01,2013-09-28 03:16:00,
2013-09-27 22:21:00,80.8,69.7,29.66,SE,145,4.0,11.0,69,0.00,,---,0.00,0.00,VWS V14.01,2013-09-28 03:21:00,
2013-09-27 22:26:00,80.7,69.6,29.66,SW,222,5.0,10.0,69,0.00,,---,0.00,0.00,VWS V14.01,2013-09-28 03:26:00,
2013-09-27 22:31:00,80.6,69.5,29.67,ESE,123,6.0,12.0,69,0.00,,---,0.00,0.00,VWS V14.01,2013-09-28 03:31:00,
2013-09-27 22:36:00,80.5,69.4,29.67,SSE,165,13.0,13.0,69,0.00,,---,0.00,0.00,VWS V14.01,2013-09-28 03:36:00,
2013-09-27 22:41:00,80.4,69.3,29.67,ESE,110,7.0,11.0,69,0.00,,---,0.00,0.00,VWS V14.01,2013-09-28 03:41:00,
2013-09-27 22:46:00,80.3,69.6,29.67,SE,144,5.0,9.0,70,0.00,,---,0.00,0.00,VWS V14.01,2013-09-28 03:46:00,
2013-09-27 22:51:00,80.2,69.5,29.67,SE,146,5.0,14.0,70,0.00,,---,0.00,0.00,VWS V14.01,2013-09-28 03:51:00,
2013-09-27 22:56:00,80.1,69.4,29.67,SE,145,11.0,12.0,70,0.00,,---,0.00,0.00,VWS V14.01,2013-09-28 03:56:00,
2013-09-27 23:01:00,80.0,69.3,29.67,ESE,103,11.0,14.0,70,0.00,,---,0.00,0.00,VWS V14.01,2013-09-28 04:01:00,
2013-09-27 23:06:00,79.9,69.2,29.67,SSE,148,8.0,8.0,70,0.00,,---,0.00,0.00,VWS V14.01,2013-09-28 04:06:00,
2013-09-27 23:11:00,79.8,69.2,29.67,SSE,150,10.0,10.0,70,0.00,,---,0.00,0.00,VWS V14.01,2013-09-28 04:11:00,
2013-09-27 23:16:00,79.7,69.5,29.67,SSE,163,6.0,11.0,71,0.00,,---,0.00,0.00,VWS V14.01,2013-09-28 04:16:00,
2013-09-27 23:21:00,79.6,69.4,29.68,SSE,163,4.0,5.0,71,0.00,,---,0.00,0.00,VWS V14.01,2013-09-28 04:21:00,
2013-09-27 23:26:00,79.5,69.3,29.68,SE,134,6.0,15.0,71,0.00,,---,0.00,0.00,VWS V14.01,2013-09-28 04:26:00,
2013-09-27 23:31:00,79.5,69.3,29.67,SE,143,3.0,7.0,71,0.00,,---,0.00,0.00,VWS V14.01,2013-09-28 04:31:00,
2013-09-27 23:36:00,79.5,69.3,29.67,SE,130,10.0,10.0,71,0.00,,---,0.00,0.00,VWS V14.01,2013-09-28 04:36:00,
2013-09-27 23:41:00,79.5,69.3,29.67,SSE,149,3.0,10.0,71,0.00,,---,0.00,0.00,VWS V14.01,2013-09-28 04:41:00,
2013-09-27 23:46:00,79.4,69.2,29.67,SSE,160,5.0,10.0,71,0.00,,---,0.00,0.00,VWS V14.01,2013-09-28 04:46:00,
2013-09-27 23:51:00,79.4,69.2,29.67,SE,136,3.0,9.0,71,0.00,,---,0.00,0.00,VWS V14.01,2013-09-28 04:51:00,
2013-09-27 23:56:00,79.4,69.2,29.67,SSE,165,6.0,9.0,71,0.00,,---,0.00,0.00,VWS V14.01,2013-09-28 04:56:00,